Overview Statistics Trail Chart Weather Telemetry Raw packets
 

This is the latest recevied weather packets stored in our database for station/object K1BES. If no packets are shown the sender has not sent any weather packets the latest 10 day(s).

<< 65 66 67 68 69 70 71 >>
Time Temp. Humidity Pressure Rain* Wind** Luminosity Snow
1788194947 31.11° C 76% 1019.4 hPa 0 mm - 779 W/m² -
1788194643 31.11° C 76% 1019.5 hPa 0 mm - 664 W/m² -
1788194338 31.11° C 75% 1019.3 hPa 0 mm - 427 W/m² -
1788194034 31.11° C 75% 1019.6 hPa 0 mm - 284 W/m² -
1788193732 31.67° C 75% 1019.6 hPa 0 mm - 342 W/m² -
1788193428 31.67° C 73% 1019.5 hPa 0 mm - 603 W/m² -
1788193126 31.67° C 73% 1019.7 hPa 0 mm - 536 W/m² -
1788192823 31.11° C 72% 1019.7 hPa 0 mm - 715 W/m² -
1788192517 31.11° C 73% 1019.6 hPa 0 mm - 543 W/m² -
1788192212 31.11° C 73% 1019.6 hPa 0 mm - 400 W/m² -
1788191907 31.11° C 71% 1019.8 hPa 0 mm - 527 W/m² -
1788191607 31.11° C 73% 1019.9 hPa 0 mm - 445 W/m² -
1788191302 31.11° C 73% 1019.7 hPa 0 mm - 294 W/m² -
1788190999 31.11° C 75% 1019.7 hPa 0 mm - 692 W/m² -
1788190697 31.11° C 73% 1019.7 hPa 0 mm - 547 W/m² -
1788190394 31.67° C 72% 1020 hPa 0 mm - 213 W/m² -
1788190089 32.78° C 68% 1019.9 hPa 0 mm - 185 W/m² -
1788189785 33.33° C 69% 1019.9 hPa 0 mm - 904 W/m² -
1788189480 32.78° C 68% 1019.9 hPa 0 mm - 913 W/m² -
1788189179 32.78° C 65% 1019.8 hPa 0 mm - 856 W/m² -
1788188874 32.22° C 69% 1019.6 hPa 0 mm - 859 W/m² -
1788188570 31.67° C 72% 1019.7 hPa 0 mm - 811 W/m² -
1788188269 32.22° C 69% 1019.7 hPa 0 mm - 789 W/m² -
1788187965 32.78° C 68% 1019.8 hPa 0 mm - 762 W/m² -
1788187660 32.78° C 68% 1019.9 hPa 0 mm - 717 W/m² -

* Rain latest hour (hover to see other rain measurements)
** Current wind speed in m/s (hover to see current wind gust speed)